Probability
49 64 81 89 91 90 92 97 98 96 96 94 87 73 52 30 14 5 1 0 0 0 0 0 0 0 0 0 0 0 0 0 0 0 0 0 0 0 0 0 0 0 0
49 66 84 91 92 90 92 97 98 96 94 89 78 59 36 17 6 2 0 0 0 0 0 0 0 0 0 0 0 0 0 0 0 0 0 0 0 0 0 0 0 0 0
52 70 87 92 91 89 91 94 95 92 84 74 60 38 17 5 0 0 0 0 0 0 0 0 0 0 0 0 0 0 0 0 0 0 0 0 0 0 0 0 0 0 0
61 75 89 92 90 89 90 89 88 80 66 54 40 22 8 2 0 0 0 0 0 0 0 0 0 0 0 0 0 0 0 0 0 0 0 0 0 0 0 0 0 0 0
69 80 90 92 90 88 87 84 77 62 45 32 22 11 4 1 0 0 0 0 0 0 0 0 0 0 0 0 0 0 0 0 0 0 0 0 0 0 0 0 0 0 0
78 86 93 93 90 84 79 72 59 40 23 14 8 4 1 0 0 0 0 0 0 0 0 0 0 0 0 0 0 0 0 0 0 0 0 0 0 0 0 0 0 0 0
87 91 94 92 86 75 63 49 34 18 8 4 2 1 0 0 0 0 0 0 0 0 0 0 0 0 0 0 0 0 0 0 0 0 0 0 0 0 0 0 0 0 0
91 89 86 81 70 54 37 24 13 5 2 1 0 0 0 0 0 0 0 0 0 0 0 0 0 0 0 0 0 0 0 0 0 0 0 0 0 0 0 0 0 0 0
82 75 65 54 41 26 15 8 3 1 0 0 0 0 0 0 0 0 0 0 0 0 0 0 0 0 0 0 0 0 0 0 0 0 0 0 0 0 0 0 0 0 0
57 49 35 24 14 7 4 2 1 0 0 0 0 0 0 0 0 0 0 0 0 0 0 0 0 0 0 0 0 0 0 0 0 0 0 0 0 0 0 0 0 0 0
29 21 12 6 3 1 1 0 0 0 0 0 0 0 0 0 0 0 0 0 0 0 0 0 0 0 0 0 0 0 0 0 0 0 0 0 0 0 0 0 0 0 0
9 5 2 1 0 0 0 0 0 0 0 0 0 0 0 0 0 0 0 0 0 0 0 0 0 0 0 0 0 0 0 0 0 0 0 0 0 0 0 0 0 0 0
1 0 0 0 0 0 0 0 0 0 0 0 0 0 0 0 0 0 0 0 0 0 0 0 0 0 0 0 0 0 0 0 0 0 0 0 0 0 0 0 0 0 0
0 0 0 0 0 0 0 0 0 0 0 0 0 0 0 0 0 0 0 0 0 0 0 0 0 0 0 0 0 0 0 0 0 0 0 0 0 0 0 0 0 0 0
0 0 0 0 0 0 0 0 0 0 0 0 0 0 0 0 0 0 0 0 0 0 0 0 0 0 0 0 0 0 0 0 0 0 0 0 0 0 0 0 0 0 0
0 0 0 0 0 0 0 0 0 0 0 0 0 0 0 0 0 0 0 0 0 0 0 0 0 0 0 0 0 0 0 0 0 0 0 0 0 0 0 0 0 0 0
0 0 0 0 0 0 0 0 0 0 0 0 0 0 0 0 0 0 0 0 0 0 0 0 0 0 0 0 0 0 0 0 0 0 0 0 0 0 0 0 0 0 0
0 0 0 0 0 0 0 0 0 0 0 0 0 0 0 0 0 0 0 0 0 0 0 0 0 0 0 0 0 0 0 0 0 0 0 0 0 0 0 0 0 0 0
0 0 0 0 0 0 0 0 0 0 0 0 0 0 0 0 0 0 0 0 0 0 0 0 0 0 0 0 0 0 0 0 0 0 0 0 0 0 0 0 0 0 0
0 0 0 0 0 0 0 0 0 0 0 0 0 0 0 0 0 0 0 0 0 0 0 0 0 0 0 0 0 0 0 0 0 0 0 0 0 0 0 0 0 0 0
0 0 0 0 0 0 0 0 0 0 0 0 0 0 0 0 0 0 0 0 0 0 0 0 0 0 0 0 0 0 0 0 0 0 0 0 0 0 0 0 0 0 0
0 0 0 0 0 0 0 0 0 0 0 0 0 0 0 0 0 0 0 0 0 0 0 0 0 0 0 0 0 0 0 0 0 0 0 0 0 0 0 0 0 0 0
0 0 0 0 0 0 0 0 0 0 0 0 0 0 0 0 0 0 0 0 0 0 0 0 0 0 0 0 0 0 0 0 0 0 0 0 0 0 0 0 0 0 0
0 0 0 0 0 0 0 0 0 0 0 0 0 0 0 0 0 0 0 0 0 0 0 0 0 0 0 0 0 0 0 0 0 0 0 0 0 0 0 0 0 0 0
0 0 0 0 0 0 0 0 0 0 0 0 0 0 0 0 0 0 0 0 0 0 0 0 0 0 0 0 0 0 0 0 0 0 0 0 0 0 0 0 0 0 0
0 0 0 0 0 0 0 0 0 0 0 0 0 0 0 0 0 0 0 0 0 0 0 0 0 0 0 0 0 0 0 0 0 0 0 0 0 0 0 0 0 0 0
Wind_Speed
17 16 16 16 15 14 14 15 16 14 12 9 8 7 6 5 5 5 7 8 8 8 7 6 5 5 5 4 4 3 5 4 3 4 4 4 3 3 3 4 4 6 6
12 14 14 15 16 17 14 12 12 11 10 8 7 5 7 6 5 5 6 7 8 8 8 7 5 5 5 6 6 4 3 3 4 3 2 4 5 4 3 3 4 5 5
19 19 17 16 15 14 12 10 9 7 6 8 8 9 7 5 4 5 5 6 8 8 8 7 6 6 5 5 5 5 4 3 4 3 3 2 2 5 4 3 4 5 4
14 17 17 15 14 11 9 9 9 8 8 8 9 11 7 6 4 4 4 5 6 7 7 7 7 6 5 5 4 4 3 3 2 2 2 2 2 1 4 5 3 4 4
14 16 15 13 11 11 10 10 10 8 8 8 8 9 8 7 6 6 7 5 5 5 6 7 6 6 4 4 4 3 3 2 2 1 1 1 1 1 2 4 6 5 4
12 12 11 13 12 11 10 10 11 9 8 9 8 10 12 11 10 7 6 4 4 4 5 6 6 5 3 3 2 2 2 1 1 1 1 1 1 2 2 4 4 5 6
13 15 15 14 12 11 10 9 11 11 10 10 9 10 10 10 9 7 6 5 4 3 4 5 4 3 2 2 2 1 1 1 2 3 3 3 3 3 3 3 5 5 4
12 13 13 12 12 11 10 10 11 11 11 12 11 10 9 7 6 6 6 5 4 4 4 4 3 2 1 1 2 1 2 2 3 5 5 4 5 4 4 4 5 7 5
14 14 14 13 12 12 11 10 12 13 12 12 12 10 10 9 9 8 7 6 5 4 4 3 2 1 1 2 2 2 3 3 3 4 5 4 5 4 5 4 4 5 9
15 15 14 13 13 13 12 11 12 13 12 10 9 10 9 9 9 9 8 6 5 4 3 2 1 1 1 2 2 2 4 4 4 3 3 4 3 4 3 3 3 3 5
14 13 12 12 12 12 12 11 10 10 10 9 9 9 8 8 8 7 7 5 4 4 3 2 2 4 6 6 6 6 6 6 5 5 5 5 5 3 3 3 3 4 4
12 12 11 11 11 12 11 10 8 9 8 8 9 8 8 8 7 7 6 6 6 6 6 7 8 9 8 7 6 6 5 5 5 5 5 6 6 6 5 4 5 5 5
11 10 9 9 9 10 10 9 8 8 7 8 9 9 8 8 8 7 7 7 7 7 7 7 7 7 6 5 4 3 4 4 5 5 6 7 6 7 6 6 6 6 7
9 8 8 8 8 8 9 9 8 7 8 9 9 9 7 7 7 7 7 7 6 7 6 6 6 5 4 3 3 3 4 5 6 6 6 7 7 7 8 7 7 7 7
9 8 8 8 8 8 8 8 8 7 7 8 8 7 6 7 7 6 6 6 6 6 5 5 4 2 2 1 2 3 5 6 7 8 8 8 12 15 11 10 8 7 7
10 9 9 8 8 8 8 8 8 7 7 8 7 6 5 5 5 5 5 6 5 5 5 4 2 1 1 1 4 6 5 6 8 9 9 10 11 14 18 21 20 17 13
10 10 9 8 7 7 7 7 7 7 7 6 5 4 4 4 4 6 6 5 4 4 4 3 2 2 3 4 6 10 7 7 8 8 8 10 11 14 10 15 19 18 21
9 9 8 8 7 7 7 7 7 6 5 4 3 3 4 5 5 6 5 4 3 3 2 2 3 2 3 5 7 11 7 7 8 9 9 10 11 11 12 12 12 11 12
8 8 8 8 8 7 6 6 5 4 3 3 3 4 5 6 5 5 4 3 2 3 2 3 3 3 3 5 7 9 6 6 9 9 10 11 10 13 16 13 11 11 10
8 8 7 8 8 6 5 6 4 3 3 4 4 5 6 6 5 4 3 2 2 2 3 4 4 3 3 6 9 11 4 7 8 9 9 12 12 16 17 11 9 10 9
8 7 7 6 5 4 4 4 4 3 3 4 6 6 6 5 4 3 2 3 3 4 4 4 4 4 4 7 10 12 6 7 8 8 8 8 15 17 16 12 8 9 10
8 7 6 5 4 3 4 4 2 2 3 5 6 5 5 4 4 4 3 3 4 4 4 4 4 4 5 6 9 14 13 11 8 8 7 9 16 17 15 10 11 13 9
5 5 6 4 2 2 3 3 2 2 4 5 5 5 5 4 3 3 3 3 3 2 3 3 4 5 5 6 11 13 15 16 9 7 13 15 16 13 9 10 12 9 5
4 4 4 3 2 1 2 2 2 3 4 5 4 4 4 3 2 2 2 2 1 1 2 3 4 5 5 5 6 7 8 11 10 8 11 14 13 10 9 8 6 5 4
3 3 4 3 3 3 3 2 3 5 6 5 4 3 2 2 2 1 2 2 2 3 2 2 2 4 5 7 12 8 6 6 7 8 5 5 7 7 6 6 5 5 5
4 4 4 4 4 4 4 4 5 6 7 5 3 2 2 2 2 2 1 3 4 5 5 5 5 5 6 10 12 13 13 12 13 7 6 6 7 7 6 6 6 5 5
Wind_Direction
198 187 185 183 177 175 177 173 168 169 161 150 144 138 127 110 91 83 88 91 92 89 85 83 68 61 67 62 57 66 53 32 15 26 351 337 355 37 54 39 36 24 16
185 185 184 182 180 180 181 175 172 171 166 151 140 125 117 104 89 87 76 81 88 87 85 80 73 65 69 57 48 54 64 29 28 56 32 352 343 350 10 13 28 17 11
180 181 181 182 178 178 174 166 158 147 137 127 118 112 97 86 78 77 72 71 80 81 87 82 76 69 75 72 63 60 74 51 24 50 91 72 313 316 324 355 20 11 9
180 178 175 174 172 165 146 133 131 127 125 125 134 136 132 124 113 109 97 80 81 90 92 89 84 80 82 83 75 76 83 87 50 29 52 125 178 252 314 323 341 355 356
181 175 169 161 145 130 122 117 116 115 120 121 129 123 116 114 118 112 105 95 87 92 96 94 91 91 91 93 86 83 78 97 116 93 45 38 39 123 181 295 315 321 311
161 144 130 122 116 113 112 114 115 112 115 121 126 130 130 132 129 123 119 110 96 88 90 94 92 99 106 106 103 95 83 109 153 177 178 166 215 254 224 251 278 291 294
131 129 125 120 114 108 106 106 109 107 110 111 111 116 121 123 124 127 125 123 111 100 95 93 94 100 112 106 91 77 7 269 248 240 237 227 226 224 229 252 270 269 273
104 108 105 102 99 95 94 98 100 98 98 100 102 103 103 102 104 106 109 116 114 111 111 104 100 109 114 109 133 176 251 245 246 248 243 243 249 241 239 247 267 283 278
94 92 87 85 85 83 81 90 95 93 90 93 97 96 95 95 96 95 94 99 105 109 108 113 118 142 187 207 205 232 258 262 260 264 266 265 269 269 264 258 250 270 292
88 83 80 80 82 85 84 82 87 92 93 92 95 99 96 98 100 100 100 101 102 103 112 117 141 233 285 309 331 331 336 345 343 333 332 316 300 296 290 278 267 249 268
93 91 90 89 90 91 93 91 90 93 93 94 93 93 95 98 97 99 103 106 99 89 73 56 45 39 38 40 46 42 35 27 10 359 348 324 311 301 295 284 271 259 254
99 100 103 104 103 102 100 98 97 97 97 97 94 91 92 91 88 86 81 78 70 59 58 63 70 74 68 59 52 32 22 6 345 331 323 312 311 301 285 275 265 260 251
100 98 98 102 108 109 105 100 98 98 96 95 94 89 86 85 83 79 77 75 72 65 65 74 82 83 77 66 53 33 6 341 320 310 305 300 300 297 289 280 271 267 270
99 99 95 93 94 94 97 98 93 92 93 91 89 84 81 81 80 78 75 70 69 69 72 82 95 98 93 76 40 10 346 329 315 305 298 293 290 285 285 286 275 275 275
109 109 107 104 98 93 90 91 90 85 88 87 81 76 74 73 74 73 70 69 70 75 76 84 99 116 108 63 24 350 338 325 315 309 301 296 305 308 307 304 295 289 282
127 121 116 111 105 100 97 92 85 77 76 77 74 71 70 70 72 75 76 74 66 58 60 66 69 36 4 321 344 347 328 316 310 307 304 303 304 306 309 307 304 299 293
129 126 123 116 109 101 97 88 79 72 71 70 70 76 80 77 77 86 78 74 65 57 57 49 33 354 301 303 333 341 334 312 304 300 302 308 308 309 299 300 302 298 292
123 122 120 112 102 95 88 83 76 72 73 74 82 93 100 94 87 82 77 67 59 52 37 13 3 356 344 353 348 340 332 309 302 301 299 299 301 303 306 306 299 292 288
116 116 116 113 104 96 92 89 85 83 89 95 100 99 104 101 92 85 75 63 58 35 12 6 16 22 1 359 345 344 321 310 308 306 305 306 304 308 315 313 303 299 297
109 111 108 105 100 93 94 100 101 105 104 101 92 93 100 102 100 94 77 49 51 38 27 25 24 25 353 339 342 344 320 315 315 310 307 310 311 316 321 320 308 304 305
110 109 107 105 107 107 102 103 101 104 110 102 95 96 101 103 100 84 65 55 51 44 32 20 359 349 337 333 336 338 332 317 314 312 313 313 318 322 324 323 318 315 312
114 112 110 110 114 114 111 105 117 133 115 104 99 95 92 92 94 86 61 54 56 43 17 0 344 331 328 329 331 332 329 326 314 311 312 314 319 324 325 326 328 330 329
119 116 118 115 112 125 130 133 172 141 111 106 106 102 96 90 100 101 84 56 46 39 4 352 338 325 323 324 330 330 327 329 326 312 317 322 325 328 327 326 331 335 335
122 119 120 119 119 122 122 149 158 125 113 116 118 118 113 105 97 102 115 106 72 33 356 341 328 319 318 323 331 327 322 326 329 324 321 323 326 331 327 328 334 334 328
133 131 128 123 117 106 91 85 100 111 112 118 125 134 144 157 167 177 187 179 203 197 209 267 285 306 317 321 327 328 323 326 327 324 322 330 333 335 336 338 337 334 336
136 126 120 113 107 99 86 76 87 105 115 123 140 158 175 197 201 210 274 259 238 239 240 253 276 291 299 323 337 342 343 346 344 344 336 335 334 335 337 339 338 335 338